www.pogodaiklimat.ru

Погода и климат >> Архив погоды >> Антарктида >> Dumont Durville


ПОГОДА в Dumont Durville

  • Прогноз погоды в Dumont Durville
  • Монитор погоды в Dumont Durville
  • Климат города

АРХИВ ПОГОДЫ в Dumont Durville

Время (UTC), дата Ветер
(напр.,м/с)
 
Видим.   Явления Облачность Т
(С)
Тd
(С)
f
(%)
Тe
(С)
Тes
(С)
Комфортность P
(гПа)
Po
(гПа)
Тmin
(С)
Tmax
(С)
R
(мм)
R24
(мм)
S
(см)
12 12.07 Ю 7
{20}
н/о н/о -18.8 -27.8 45 -30 -30 980.2 974.6 -21.1 -17.3
15 12.07 З 2 н/о н/о -19.4 -28.1 46 -25 -25 978.7 973.1
18 12.07 Ю 9-18
{22}
н/о н/о -19.7 -27.5 50 -33 -33 опасность
обморожения
979.4 973.7
21 12.07 ЮВ 12-22
{33}
10 км 3/0
[]
-17.7 -30.5 32 -32 -32 опасность
обморожения
981.0 975.4
00 13.07 ЮВ 14-25
{33}
н/о н/о -18.9 -30.6 35 -34 -34 опасность
обморожения
982.7 977.0 -20.9 -16.9
03 13.07 Ю 10-16
{23}
15 км 3/0
[Ci fib]
-18.5 -29.3 38 -32 -32 опасность
обморожения
984.6 978.9
06 13.07 ЮВ 11-19
{26}
н/о н/о -17.1 -31.3 28 -30 -30 987.4 981.8
09 13.07 Ю 12-20
{25}
н/о н/о -17.0 -28.0 38 -31 -31 опасность
обморожения
990.2 984.5
12 13.07 ЮВ 7
{25}
н/о н/о -18.2 -28.5 40 -29 -29 992.0 986.3 -20.5 -16.7
15 13.07 С 1 н/о н/о -19.9 -27.9 49 -23 -23 993.7 988.0
18 13.07 В 4 н/о н/о -19.1 -27.4 48 -27 -27 993.2 987.5
21 13.07 В 11-18
{18}
6000 м 10/10 1000 м
[]
-17.7 -26.1 48 -31 -31 опасность
обморожения
989.3 983.6
00 14.07 СВ 10-16
{18}
4000 м дымка ?/? -18.9 -23.2 69 -32 -32 опасность
обморожения
987.1 981.4 -20.9 -15.5
03 14.07 В 12-20
{20}
100 м слабый снег {метель} ?/? -16.4 -18.3 85 -30 -30 986.8 981.2
06 14.07 СВ 11-17
{21}
100 м слабый снег {метель} ?/? -21.0 -23.4 81 -36 -36 опасность
обморожения
990.6 984.9
09 14.07 В 5
{19}
500 м слабый снег ?/? -21.6 -24.1 80 -32 -32 опасность
обморожения
993.7 987.9
12 14.07 В 8-14
{19}
н/о н/о -20.7 -23.1 81 -33 -33 опасность
обморожения
993.6 987.8 -22.2 -16.2
15 14.07 В 10
{22}
н/о н/о -19.3 -21.6 82 -33 -33 опасность
обморожения
994.5 988.8
18 14.07 СВ 5
{22}
н/о н/о -20.9 -23.3 81 -31 -31 опасность
обморожения
995.4 989.6
21 14.07 В 3 500 м ?/? -20.6 -23.0 81 -28 -28 997.6 991.8
00 15.07 В 4 3000 м слабый снег ?/? -20.3 -22.6 82 -29 -29 997.7 991.9 -21.1 -18.9
03 15.07 В 5 4000 м слабый снег 10/9 600 м
[Sc As trans]
-19.9 -22.2 82 -30 -30 998.4 992.6
06 15.07 В 4 10 км {снег} 9/3 1000 м
[Sc As trans]
-18.5 -20.7 83 -27 -27 999.0 993.3
09 15.07 В 5 10 км 3/0
[As trans]
-19.0 -21.2 83 -29 -29 1000.0 994.2
12 15.07 В 10-16
{16}
н/о н/о -17.0 -19.2 83 -30 -30 999.9 994.2 -20.3 -16.7
15 15.07 СВ 2 н/о н/о -17.2 -19.5 82 -23 -23 1000.3 994.6
18 15.07 В 8-16
{16}
н/о н/о -13.7 -17.3 74 -24 -24 999.0 993.4
21 15.07 В 9-15
{16}
8000 м 10/10 1000 м
[]
-11.7 -17.7 61 -22 -22 998.8 993.2
00 16.07 В 11-18
{21}
5000 м позёмок {метель} ?/? -11.6 -13.5 86 -23 -23 998.4 992.8 -18.4 -11.4
03 16.07 В 12-19
{23}
2000 м слабый снег {метель} ?/? -10.9 -12.2 90 -23 -23 997.2 991.6
06 16.07 В 14-24
{25}
1000 м слабый снег {метель} ?/? -10.1 -11.3 91 -22 -22 995.7 990.2
09 16.07 В 13-21
{25}
1000 м слабый снег ?/? -9.8 -11.0 91 -22 -22 994.8 989.3
12 16.07 В 14-22
{26}
н/о н/о -10.2 -11.5 90 -22 -22 995.5 990.0 -11.9 -9.4
15 16.07 В 13-23
{25}
н/о н/о -10.1 -11.4 90 -22 -22 995.1 989.6
18 16.07 В 15-23
{26}
н/о н/о -9.6 -10.8 91 -22 -22 994.3 988.8
21 16.07 В 12 500 м ?/? -9.5 -10.7 91 -21 -21 994.3 988.8
00 17.07 В 13-21
{27}
н/о н/о -9.0 -10.2 91 -21 -21 993.6 988.1 -10.6 -8.4
03 17.07 В 16-23
{26}
1500 м слабый снег ?/? -7.8 -8.9 92 -20 -20 992.4 986.9
06 17.07 В 19-26
{29}
1000 м слабый снег ?/? -7.2 -8.1 93 -20 -20 990.3 984.9
09 17.07 В 21-30
{32}
н/о н/о -6.9 -7.7 94 -20 -20 989.6 984.2
12 17.07 В 19-28
{32}
н/о н/о -6.1 -6.9 94 -19 -19 989.2 983.8 -9.2 -5.9
15 17.07 ЮВ 23-34
{37}
н/о н/о -7.1 -7.9 94 -21 -21 989.1 983.7
18 17.07 В 23-32
{41}
н/о н/о -6.5 -7.3 94 -20 -20 988.8 983.4
21 17.07 ЮВ 27-38
{41}
100 м ?/? -7.8 -8.7 93 -23 -23 988.7 983.3
00 18.07 ЮВ 27-40
{43}
100 м слабый снег ?/? -8.3 -9.4 92 -23 -23 988.2 982.7 -8.5 -5.2
03 18.07 ЮВ 26-38
{44}
<100 м слабый снег ?/? -8.7 -9.8 92 -24 -24 988.8 983.3
06 18.07 ЮВ 30-43
{44}
<100 м слабый снег ?/? -9.4 -10.6 91 -25 -25 986.0 980.5
09 18.07 ЮВ 26-39
{45}
<100 м метель {снег} ?/? -8.4 -9.5 92 -23 -23 986.5 981.1
12 18.07 ЮВ 19-27
{45}
н/о н/о -8.8 -9.9 92 -22 -22 989.0 983.5 -9.7 -7.7
15 18.07 ЮВ 21-31
{33}
н/о н/о -9.4 -10.6 91 -23 -23 988.9 983.4
18 18.07 В 19-29
{41}
н/о н/о -9.3 -10.5 91 -23 -23 988.6 983.1
21 18.07 ЮВ 23-32
{34}
200 м ?/? -9.1 -10.3 91 -23 -23 986.6 981.1
00 19.07 ЮВ 14-21
{34}
12 км метель 8/0
[Ci fib]
-7.9 -9.3 90 -20 -20 986.2 980.8 -10.2 -7.8
03 19.07 ЮВ 13-20
{30}
20 км позёмок {метель} 9/0
[Ci fib]
-7.0 -9.9 80 -18 -18 985.0 979.6
06 19.07 В 5
{30}
15 км {метель} 9/1 1000 м
[Sc Ci fib]
-8.0 -11.2 78 -16 -16 984.4 979.0

 

Местоположение метеостанции Dumont Durville (Антарктида): широта -66.66 долгота 140.01 высота над уровнем моря 43 м.

В архиве по умолчанию представлена погода в Dumont Durville за последнюю неделю. Архивные данные за месяц целиком и за предыдущие месяцы, начиная с января 2011 года, Вы можете получить, выбрав интересующий диапазон дат из раскрывающегося списка и нажав кнопку "Ввод!".


*Определитесь, кто Вы:
робот инопланетянин человек

Внимание! Время в таблицах - всемирное. Для получения местного времени необходимо прибавить поправку, которая в Dumont Durville равна 0 ч.

Смотрите также архив погоды в соседних городах и на ближайших метеорологических станциях:

Погода в D-47 (Антарктида) (98 км)
Погода в Sitry Point (Антарктида) (651 км)
Погода в Mid Point (Антарктида) (691 км)
Погода в Leningradskaya (Антарктида) (860 км)
Погода в Dome C II (Антарктида) (1110 км)
Погода в Macquarie Island (Австралия) (1688 км)

Пояснения к столбцам:

Ветер - указаны скорость ветра в м/с - средняя за 10 мин, порывы в срок и между сроками (в фигурных скобках) и направление, откуда дует ветер: С - северный, СВ - северо-восточный, В - восточный, ЮВ - юго-восточный, Ю - южный, ЮЗ - юго-западный, З - западный, СЗ - северо-западный.
Видимость - горизонтальная дальность видимости в метрах или километрах. При видимости от 1 до 10 км при отсутствии осадков обычно наблюдается дымка, при ухудшении видимости до 1 км и менее - туман. В сухую погоду видимость может ухудшаться дымом, пылью или мглою.
Явления - указаны атмосферные явления, наблюдавшиеся в срок или в последний час перед сроком; фигурными скобками обозначены явления, наблюдавшиеся между сроками (за 1-3 часа до срока); квадратными скобками обозначены град или гололедные отложения с указанием их диаметра в мм.
Облачность - указаны через наклонную черту общая и нижняя облачность в баллах и высота нижней границы облаков в метрах; квадратными скобками обозначены формы облаков: Ci - перистые, Cs - перисто-слоистые, Cc - перисто-кучевые, Ac - высококучевые, As - высокослоистые, Sc - слоисто-кучевые, Ns - слоисто-дождевые, Cu - кучевые, Cb - кучево-дождевые. Подробнее классификацию облаков см. в Атласе облаков (PDF).
T - Температура воздуха - температура, измеренная на высоте 2 м над землей.
Td - Температура точки росы - температура, при понижении до которой содержащийся в воздухе водяной пар достигнет насыщения.
f - Относительная влажность воздуха - влажноcть воздуха, измеренная на высоте 2 м над землей.
Te - Эффективная температура - температура, которую ощущает одетый по сезону человек в тени. Характеристика душности погоды. При расчете учитывается влияние влажности воздуха и скорости ветра на теплоощущения человека.
Tes - Эффективная температура на солнце - температура, которую ощущает человек, с поправкой на солнечный нагрев. Характеристика знойности погоды. Зависит от высоты солнца над горизонтом, облачности и скорости ветра. Ночью, в пасмурную погоду, а также при ветре 12 м/с и более поправка равна нулю.
P - Атмосферное давление - приведенное к уровню моря атмосферное давление.
Po - Атмосферное давление - измеренное на уровне метеостанции атмосферное давление.
Tmin - Минимальная температура - минимум температуры воздуха на высоте 2 м над землей.
Tmax - Максимальная температура - максимум температуры воздуха на высоте 2 м над землей.
R - Количество осадков - Количество выпавших осадков за период времени, мм. При наведении курсора мыши на число - период времени, за который выпало указанное количество осадков.
R24 - Количество осадков - Количество выпавших осадков за 24 часа, мм.
S - Снежный покров - Высота снежного покрова, см. При наведении курсора мыши на число - состояние снежного покрова и степень покрытия местности в баллах.